Погода в Нямозеро

Россия / Мурманская область     66°57′47″N   31°27′25″E
темп.,
°C
ветер,
м/с
пор.,
м/с
влажн.,
%
обл.,
%
осадки,
мм/ч
давл.,
гПа
погр.,
м
15 апреля, чт
чт1500:00−3зсз513775 0.0 1021573
03:00−5з310826 0.0 1023317
06:00−8з229339 0.0 102532
09:00−1зюз2107826 0.0 1025463
12:00+2зюз5117845 0.0 1025681
15:00+3зюз5118298 0.0 1025733
18:00+3з5128190 0.0 1026673
21:00+1з31188100 0.0 1027320
16 апреля, пт
пт1600:00−2зсз269453 0.0 1029133
03:00−3з23956 0.0 103042
06:00−3зсз22935 0.0 103141
09:00+2з24845 0.0 1032194
12:00+4зсз367911 0.0 1033447
15:00+5зсз357873 0.0 1034466
18:00+4зсз278555 0.0 1034310
21:00−1зсз22946 0.0 103518
17 апреля, сб
сб1700:00−1зсз22945 0.0 103539
03:00−2зсз229484 0.0 103541
06:00−1з239443 0.0 103556
09:00+3з278438 0.0 1034301
12:00+5з477411 0.0 1034537
15:00+6зсз36695 0.0 1034658
18:00+5зсз23834 0.0 1033163
21:000зсз21945 0.0 103411
18 апреля, вс
вс1800:00−1зсз22956 0.0 103414
03:00−1зсз119610 0.0 103412
06:00−1зсз119685 0.0 103414
09:00+4зюз11835 0.0 1034170
12:00+6ююз126938 0.0 1034601
15:00+7юз236289 0.0 1033806
18:00+6ююв117887 0.0 103344
21:00+3юв1187100 0.0 103311
19 апреля, пн
пн1900:00+2юв1190100 0.0 103312
03:00+1юв1192100 0.0 103311
06:00+1юв1193100 0.0 103315
09:00+4ю128499 0.0 1032152
12:00+7ю247599 0.0 1031443
15:00+10ю3661100 0.0 1030929
18:00+10юз2564100 0.0 1029569
21:00+6ююз218296 0.0 102913